Time,TemperatureF,DewpointF,PressureIn,WindDirection,WindDirectionDegrees,WindSpeedMPH,WindSpeedGustMPH,Humidity,HourlyPrecipIn,Conditions,Clouds,dailyrainin,SoftwareType,DateUTC
2013-03-31 00:12:00,29.0,26.0,30.30,NNW,330,7.0,9.0,85,-99.99,,,-99.99,,2013-03-31 06:12:00,
2013-03-31 00:17:00,29.0,26.0,30.30,NNE,20,5.0,10.0,86,-99.99,,,-99.99,,2013-03-31 06:17:00,
2013-03-31 00:22:00,29.0,25.0,30.29,NNW,340,8.0,9.0,86,-99.99,,,-99.99,,2013-03-31 06:22:00,
2013-03-31 00:27:00,29.0,25.0,30.29,NE,40,4.0,8.0,86,-99.99,,,-99.99,,2013-03-31 06:27:00,
2013-03-31 00:32:00,28.0,25.0,30.29,North,10,3.0,6.0,86,-99.99,,,-99.99,,2013-03-31 06:32:00,
2013-03-31 00:42:00,28.0,25.0,30.29,NW,310,8.0,8.0,87,-99.99,,,-99.99,,2013-03-31 06:42:00,
2013-03-31 00:52:00,28.0,25.0,30.29,NNE,20,6.0,7.0,88,-99.99,,,-99.99,,2013-03-31 06:52:00,
2013-03-31 00:57:00,28.0,25.0,30.29,NE,50,6.0,7.0,87,-99.99,,,-99.99,,2013-03-31 06:57:00,
2013-03-31 01:02:00,28.0,25.0,30.29,NNW,340,7.0,8.0,88,-99.99,,,-99.99,,2013-03-31 07:02:00,
2013-03-31 01:12:00,28.0,25.0,30.29,North,350,8.0,8.0,89,-99.99,,,-99.99,,2013-03-31 07:12:00,
2013-03-31 01:22:00,29.0,25.0,30.29,NNW,330,9.0,9.0,87,-99.99,,,-99.99,,2013-03-31 07:22:00,
2013-03-31 01:27:00,29.0,25.0,30.29,NW,320,4.0,8.0,87,-99.99,,,-99.99,,2013-03-31 07:27:00,
2013-03-31 01:32:00,28.0,25.0,30.29,NE,40,0.0,6.0,86,-99.99,,,-99.99,,2013-03-31 07:32:00,
2013-03-31 01:37:00,28.0,24.0,30.29,ENE,60,5.0,5.0,86,-99.99,,,-99.99,,2013-03-31 07:37:00,
2013-03-31 01:47:00,28.0,24.0,30.29,NNW,340,4.0,6.0,86,-99.99,,,-99.99,,2013-03-31 07:47:00,
2013-03-31 01:57:00,28.0,24.0,30.29,NE,40,0.0,3.0,87,-99.99,,,-99.99,,2013-03-31 07:57:00,
2013-03-31 02:02:00,27.0,24.0,30.29,NE,40,0.0,0.0,87,-99.99,,,-99.99,,2013-03-31 08:02:00,
2013-03-31 02:07:00,27.0,24.0,30.29,WNW,300,3.0,0.0,88,-99.99,,,-99.99,,2013-03-31 08:07:00,
2013-03-31 02:17:00,27.0,24.0,30.29,NNW,330,3.0,6.0,88,-99.99,,,-99.99,,2013-03-31 08:17:00,
2013-03-31 02:27:00,26.0,24.0,30.29,NNW,330,9.0,9.0,89,-99.99,,,-99.99,,2013-03-31 08:27:00,
2013-03-31 02:37:00,26.0,23.0,30.28,North,10,8.0,8.0,88,-99.99,,,-99.99,,2013-03-31 08:37:00,
2013-03-31 02:47:00,26.0,23.0,30.28,North,0,0.0,8.0,91,-99.99,,,-99.99,,2013-03-31 08:47:00,
2013-03-31 02:57:00,26.0,23.0,30.28,WNW,290,5.0,5.0,88,-99.99,,,-99.99,,2013-03-31 08:57:00,
2013-03-31 03:07:00,24.0,22.0,30.28,WNW,290,7.0,9.0,90,-99.99,,,-99.99,,2013-03-31 09:07:00,
2013-03-31 03:12:00,24.0,22.0,30.28,NW,310,6.0,10.0,91,-99.99,,,-99.99,,2013-03-31 09:12:00,
2013-03-31 03:17:00,25.0,22.0,30.28,NNW,340,8.0,8.0,91,-99.99,,,-99.99,,2013-03-31 09:17:00,
2013-03-31 03:27:00,25.0,22.0,30.28,North,350,6.0,8.0,91,-99.99,,,-99.99,,2013-03-31 09:27:00,
2013-03-31 03:32:00,24.0,22.0,30.28,North,350,5.0,9.0,91,-99.99,,,-99.99,,2013-03-31 09:32:00,
2013-03-31 03:37:00,24.0,22.0,30.28,NNW,330,10.0,10.0,92,-99.99,,,-99.99,,2013-03-31 09:37:00,
2013-03-31 03:42:00,24.0,22.0,30.27,North,350,9.0,10.0,92,-99.99,,,-99.99,,2013-03-31 09:42:00,
2013-03-31 03:47:00,24.0,22.0,30.27,North,350,8.0,10.0,92,-99.99,,,-99.99,,2013-03-31 09:47:00,
2013-03-31 03:57:00,24.0,22.0,30.27,North,0,6.0,8.0,92,-99.99,,,-99.99,,2013-03-31 09:57:00,
2013-03-31 04:02:00,24.0,22.0,30.27,NNW,340,7.0,9.0,92,-99.99,,,-99.99,,2013-03-31 10:02:00,
2013-03-31 04:12:00,23.0,21.0,30.27,NE,50,7.0,7.0,91,-99.99,,,-99.99,,2013-03-31 10:12:00,
2013-03-31 04:17:00,22.0,20.0,30.27,NE,40,8.0,8.0,91,-99.99,,,-99.99,,2013-03-31 10:17:00,
2013-03-31 04:22:00,22.0,20.0,30.27,NNE,20,7.0,8.0,92,-99.99,,,-99.99,,2013-03-31 10:22:00,
2013-03-31 04:32:00,22.0,20.0,30.27,NNE,30,8.0,8.0,92,-99.99,,,-99.99,,2013-03-31 10:32:00,
2013-03-31 04:42:00,22.0,20.0,30.27,WNW,300,4.0,8.0,91,-99.99,,,-99.99,,2013-03-31 10:42:00,
2013-03-31 04:47:00,22.0,20.0,30.27,WNW,300,7.0,8.0,91,-99.99,,,-99.99,,2013-03-31 10:47:00,
2013-03-31 04:57:00,22.0,20.0,30.27,North,350,7.0,9.0,93,-99.99,,,-99.99,,2013-03-31 10:57:00,
2013-03-31 05:02:00,22.0,20.0,30.27,NNW,330,6.0,9.0,93,-99.99,,,-99.99,,2013-03-31 11:02:00,
2013-03-31 05:12:00,22.0,20.0,30.27,North,10,7.0,10.0,92,-99.99,,,-99.99,,2013-03-31 11:12:00,
2013-03-31 05:22:00,22.0,20.0,30.27,NW,320,6.0,10.0,92,-99.99,,,-99.99,,2013-03-31 11:22:00,
2013-03-31 05:27:00,22.0,20.0,30.27,North,0,8.0,10.0,92,-99.99,,,-99.99,,2013-03-31 11:27:00,
2013-03-31 05:32:00,21.0,19.0,30.27,NNE,30,7.0,9.0,92,-99.99,,,-99.99,,2013-03-31 11:32:00,
2013-03-31 05:42:00,21.0,19.0,30.27,NNW,330,8.0,11.0,93,-99.99,,,-99.99,,2013-03-31 11:42:00,
2013-03-31 05:47:00,21.0,19.0,30.27,North,0,6.0,11.0,92,-99.99,,,-99.99,,2013-03-31 11:47:00,
2013-03-31 05:57:00,21.0,18.0,30.27,North,350,6.0,8.0,91,-99.99,,,-99.99,,2013-03-31 11:57:00,
2013-03-31 06:07:00,21.0,19.0,30.27,NNW,340,9.0,11.0,93,-99.99,,,-99.99,,2013-03-31 12:07:00,
2013-03-31 06:12:00,21.0,19.0,30.27,NW,320,7.0,10.0,92,-99.99,,,-99.99,,2013-03-31 12:12:00,
2013-03-31 06:17:00,21.0,18.0,30.27,North,350,5.0,8.0,91,-99.99,,,-99.99,,2013-03-31 12:17:00,
2013-03-31 06:27:00,20.0,18.0,30.27,NNW,330,7.0,8.0,92,-99.99,,,-99.99,,2013-03-31 12:27:00,
2013-03-31 06:37:00,20.0,18.0,30.27,NW,320,9.0,9.0,92,-99.99,,,-99.99,,2013-03-31 12:37:00,
2013-03-31 06:47:00,20.0,18.0,30.27,NNW,330,9.0,9.0,93,-99.99,,,-99.99,,2013-03-31 12:47:00,
2013-03-31 06:57:00,20.0,18.0,30.28,NW,320,8.0,10.0,92,-99.99,,,-99.99,,2013-03-31 12:57:00,
2013-03-31 07:07:00,20.0,18.0,30.28,NNW,340,10.0,10.0,93,-99.99,,,-99.99,,2013-03-31 13:07:00,
2013-03-31 07:17:00,20.0,18.0,30.29,NNW,340,9.0,10.0,93,-99.99,,,-99.99,,2013-03-31 13:17:00,
2013-03-31 07:27:00,20.0,17.0,30.29,NW,310,9.0,9.0,91,-99.99,,,-99.99,,2013-03-31 13:27:00,
2013-03-31 07:37:00,19.0,17.0,30.29,North,350,6.0,10.0,91,-99.99,,,-99.99,,2013-03-31 13:37:00,
2013-03-31 07:47:00,19.0,17.0,30.29,North,350,5.0,7.0,91,-99.99,,,-99.99,,2013-03-31 13:47:00,
2013-03-31 08:02:00,22.0,19.0,30.29,NNW,340,8.0,9.0,87,-99.99,,,-99.99,,2013-03-31 14:02:00,
2013-03-31 08:07:00,24.0,20.0,30.29,North,350,7.0,9.0,86,-99.99,,,-99.99,,2013-03-31 14:07:00,
2013-03-31 08:17:00,26.0,21.0,30.29,WNW,300,0.0,8.0,81,-99.99,,,-99.99,,2013-03-31 14:17:00,
2013-03-31 08:22:00,26.0,21.0,30.29,WNW,300,0.0,0.0,78,-99.99,,,-99.99,,2013-03-31 14:22:00,
2013-03-31 08:27:00,27.0,21.0,30.29,NNW,340,5.0,7.0,78,-99.99,,,-99.99,,2013-03-31 14:27:00,
2013-03-31 08:37:00,28.0,21.0,30.29,WNW,300,5.0,7.0,75,-99.99,,,-99.99,,2013-03-31 14:37:00,
2013-03-31 08:42:00,28.0,21.0,30.29,North,350,5.0,9.0,75,-99.99,,,-99.99,,2013-03-31 14:42:00,
2013-03-31 08:47:00,28.0,22.0,30.29,NW,320,7.0,9.0,76,-99.99,,,-99.99,,2013-03-31 14:47:00,
2013-03-31 08:57:00,30.0,22.0,30.29,North,350,0.0,8.0,74,-99.99,,,-99.99,,2013-03-31 14:57:00,
2013-03-31 09:02:00,30.0,22.0,30.29,West,270,0.0,7.0,73,-99.99,,,-99.99,,2013-03-31 15:02:00,
2013-03-31 09:07:00,31.0,23.0,30.29,WNW,300,3.0,6.0,72,-99.99,,,-99.99,,2013-03-31 15:07:00,
2013-03-31 09:12:00,31.0,23.0,30.29,North,0,0.0,6.0,72,-99.99,,,-99.99,,2013-03-31 15:12:00,
2013-03-31 09:22:00,32.0,24.0,30.29,NW,310,0.0,6.0,71,-99.99,,,-99.99,,2013-03-31 15:22:00,
2013-03-31 09:27:00,33.0,24.0,30.29,NW,310,0.0,0.0,69,-99.99,,,-99.99,,2013-03-31 15:27:00,
2013-03-31 09:37:00,33.0,24.0,30.29,NW,310,0.0,0.0,67,-99.99,,,-99.99,,2013-03-31 15:37:00,
2013-03-31 09:42:00,34.0,24.0,30.29,NNW,340,0.0,3.0,68,-99.99,,,-99.99,,2013-03-31 15:42:00,
2013-03-31 09:52:00,34.0,25.0,30.29,NNW,340,0.0,0.0,67,-99.99,,,-99.99,,2013-03-31 15:52:00,
2013-03-31 10:02:00,34.0,24.0,30.29,NNW,340,0.0,0.0,66,-99.99,,,-99.99,,2013-03-31 16:02:00,
2013-03-31 10:12:00,35.0,24.0,30.29,North,350,0.0,2.0,66,-99.99,,,-99.99,,2013-03-31 16:12:00,
2013-03-31 10:17:00,35.0,24.0,30.29,North,350,0.0,0.0,65,-99.99,,,-99.99,,2013-03-31 16:17:00,
2013-03-31 10:27:00,36.0,24.0,30.29,North,350,0.0,0.0,64,-99.99,,,-99.99,,2013-03-31 16:27:00,
2013-03-31 10:32:00,36.0,26.0,30.29,North,350,0.0,0.0,66,-99.99,,,-99.99,,2013-03-31 16:32:00,
2013-03-31 10:47:00,37.0,26.0,30.29,SSW,200,0.0,0.0,63,-99.99,,,-99.99,,2013-03-31 16:47:00,
2013-03-31 10:57:00,38.0,26.0,30.29,SW,220,0.0,2.0,62,-99.99,,,-99.99,,2013-03-31 16:57:00,
2013-03-31 11:07:00,38.0,25.0,30.29,SW,220,0.0,0.0,59,-99.99,,,-99.99,,2013-03-31 17:07:00,
2013-03-31 11:12:00,39.0,25.0,30.29,SSW,210,0.0,4.0,59,-99.99,,,-99.99,,2013-03-31 17:12:00,
2013-03-31 11:17:00,39.0,26.0,30.29,SSW,210,0.0,3.0,58,-99.99,,,-99.99,,2013-03-31 17:17:00,
2013-03-31 11:27:00,40.0,26.0,30.29,SSW,210,0.0,4.0,57,-99.99,,,-99.99,,2013-03-31 17:27:00,
2013-03-31 11:32:00,40.0,26.0,30.29,South,180,0.0,5.0,58,-99.99,,,-99.99,,2013-03-31 17:32:00,
2013-03-31 11:37:00,41.0,27.0,30.29,SSW,200,0.0,2.0,58,-99.99,,,-99.99,,2013-03-31 17:37:00,
2013-03-31 11:47:00,41.0,28.0,30.29,SSW,200,3.0,5.0,58,-99.99,,,-99.99,,2013-03-31 17:47:00,
2013-03-31 11:52:00,41.0,27.0,30.29,SSE,160,0.0,5.0,57,-99.99,,,-99.99,,2013-03-31 17:52:00,
2013-03-31 12:02:00,42.0,28.0,30.28,SE,140,0.0,5.0,56,-99.99,,,-99.99,,2013-03-31 18:02:00,
2013-03-31 12:07:00,42.0,28.0,30.28,SE,140,3.0,0.0,57,-99.99,,,-99.99,,2013-03-31 18:07:00,
2013-03-31 12:12:00,43.0,28.0,30.28,SE,140,3.0,3.0,55,-99.99,,,-99.99,,2013-03-31 18:12:00,
2013-03-31 12:17:00,43.0,28.0,30.28,SE,140,0.0,5.0,54,-99.99,,,-99.99,,2013-03-31 18:17:00,
2013-03-31 12:27:00,44.0,27.0,30.28,SSE,160,0.0,0.0,52,-99.99,,,-99.99,,2013-03-31 18:27:00,
2013-03-31 12:32:00,44.0,27.0,30.28,SSE,160,0.0,2.0,52,-99.99,,,-99.99,,2013-03-31 18:32:00,
2013-03-31 12:37:00,44.0,27.0,30.28,SW,230,0.0,4.0,51,-99.99,,,-99.99,,2013-03-31 18:37:00,
2013-03-31 12:47:00,45.0,28.0,30.28,SSW,210,0.0,4.0,50,-99.99,,,-99.99,,2013-03-31 18:47:00,
2013-03-31 12:57:00,46.0,27.0,30.28,South,180,3.0,4.0,48,-99.99,,,-99.99,,2013-03-31 18:57:00,
2013-03-31 13:02:00,47.0,27.0,30.28,South,180,0.0,5.0,46,-99.99,,,-99.99,,2013-03-31 19:02:00,
2013-03-31 13:12:00,47.0,26.0,30.28,SSW,210,4.0,4.0,45,-99.99,,,-99.99,,2013-03-31 19:12:00,
2013-03-31 13:17:00,47.0,27.0,30.28,SSW,200,0.0,5.0,45,-99.99,,,-99.99,,2013-03-31 19:17:00,
2013-03-31 13:27:00,48.0,27.0,30.28,SW,220,0.0,4.0,44,-99.99,,,-99.99,,2013-03-31 19:27:00,
2013-03-31 13:37:00,48.0,26.0,30.27,SSW,200,0.0,4.0,43,-99.99,,,-99.99,,2013-03-31 19:37:00,
2013-03-31 13:47:00,49.0,27.0,30.27,SSW,210,0.0,5.0,43,-99.99,,,-99.99,,2013-03-31 19:47:00,
2013-03-31 13:52:00,49.0,27.0,30.27,SSW,210,5.0,5.0,42,-99.99,,,-99.99,,2013-03-31 19:52:00,
2013-03-31 14:02:00,50.0,28.0,30.27,SSW,210,5.0,5.0,43,-99.99,,,-99.99,,2013-03-31 20:02:00,
2013-03-31 14:07:00,50.0,28.0,30.27,South,190,6.0,6.0,42,-99.99,,,-99.99,,2013-03-31 20:07:00,
2013-03-31 14:17:00,51.0,28.0,30.27,South,190,7.0,7.0,42,-99.99,,,-99.99,,2013-03-31 20:17:00,
2013-03-31 14:22:00,51.0,28.0,30.27,WSW,240,3.0,7.0,42,-99.99,,,-99.99,,2013-03-31 20:22:00,
2013-03-31 14:32:00,51.0,28.0,30.26,SE,140,3.0,7.0,41,-99.99,,,-99.99,,2013-03-31 20:32:00,
2013-03-31 14:37:00,51.0,28.0,30.26,SSE,160,0.0,7.0,41,-99.99,,,-99.99,,2013-03-31 20:37:00,
2013-03-31 14:42:00,51.0,27.0,30.26,SSE,160,0.0,0.0,40,-99.99,,,-99.99,,2013-03-31 20:42:00,
2013-03-31 14:52:00,50.0,27.0,30.26,North,10,7.0,8.0,41,-99.99,,,-99.99,,2013-03-31 20:52:00,
2013-03-31 14:57:00,50.0,26.0,30.26,NNW,340,0.0,7.0,40,-99.99,,,-99.99,,2013-03-31 20:57:00,
2013-03-31 15:12:00,50.0,28.0,30.26,North,0,5.0,9.0,42,-99.99,,,-99.99,,2013-03-31 21:12:00,
2013-03-31 15:17:00,50.0,27.0,30.25,NNW,330,5.0,8.0,41,-99.99,,,-99.99,,2013-03-31 21:17:00,
2013-03-31 15:22:00,50.0,28.0,30.25,WSW,250,3.0,8.0,42,-99.99,,,-99.99,,2013-03-31 21:22:00,
2013-03-31 15:27:00,50.0,28.0,30.25,NNW,330,8.0,8.0,43,-99.99,,,-99.99,,2013-03-31 21:27:00,
2013-03-31 15:32:00,50.0,28.0,30.25,WNW,290,7.0,8.0,43,-99.99,,,-99.99,,2013-03-31 21:32:00,
2013-03-31 15:42:00,50.0,27.0,30.25,West,260,7.0,8.0,40,-99.99,,,-99.99,,2013-03-31 21:42:00,
2013-03-31 15:47:00,50.0,27.0,30.25,West,280,5.0,8.0,41,-99.99,,,-99.99,,2013-03-31 21:47:00,
2013-03-31 15:52:00,50.0,27.0,30.25,West,280,8.0,8.0,42,-99.99,,,-99.99,,2013-03-31 21:52:00,
2013-03-31 15:57:00,50.0,28.0,30.24,NNW,330,6.0,9.0,43,-99.99,,,-99.99,,2013-03-31 21:57:00,
2013-03-31 16:07:00,50.0,28.0,30.24,NW,310,7.0,9.0,44,-99.99,,,-99.99,,2013-03-31 22:07:00,
2013-03-31 16:12:00,50.0,28.0,30.24,West,270,5.0,9.0,43,-99.99,,,-99.99,,2013-03-31 22:12:00,
2013-03-31 16:22:00,50.0,27.0,30.24,West,280,7.0,9.0,42,-99.99,,,-99.99,,2013-03-31 22:22:00,
2013-03-31 16:32:00,50.0,26.0,30.24,WNW,300,10.0,10.0,40,-99.99,,,-99.99,,2013-03-31 22:32:00,
2013-03-31 16:37:00,49.0,27.0,30.24,NW,310,8.0,10.0,42,-99.99,,,-99.99,,2013-03-31 22:37:00,
2013-03-31 16:47:00,49.0,26.0,30.24,NW,320,8.0,10.0,41,-99.99,,,-99.99,,2013-03-31 22:47:00,
2013-03-31 16:52:00,49.0,26.0,30.24,WNW,300,7.0,10.0,41,-99.99,,,-99.99,,2013-03-31 22:52:00,
2013-03-31 17:02:00,48.0,26.0,30.24,WNW,300,9.0,11.0,41,-99.99,,,-99.99,,2013-03-31 23:02:00,
2013-03-31 17:07:00,48.0,27.0,30.24,WNW,290,7.0,10.0,43,-99.99,,,-99.99,,2013-03-31 23:07:00,
2013-03-31 17:17:00,45.0,24.0,30.24,NW,310,8.0,9.0,44,-99.99,,,-99.99,,2013-03-31 23:17:00,
2013-03-31 17:22:00,46.0,25.0,30.24,West,270,8.0,8.0,44,-99.99,,,-99.99,,2013-03-31 23:22:00,
2013-03-31 17:32:00,45.0,24.0,30.24,WNW,290,10.0,10.0,44,-99.99,,,-99.99,,2013-03-31 23:32:00,
2013-03-31 17:42:00,45.0,24.0,30.23,WNW,290,10.0,10.0,43,-99.99,,,-99.99,,2013-03-31 23:42:00,
2013-03-31 17:47:00,45.0,24.0,30.24,WNW,300,10.0,10.0,44,-99.99,,,-99.99,,2013-03-31 23:47:00,
2013-03-31 17:52:00,45.0,25.0,30.24,WNW,300,7.0,9.0,45,-99.99,,,-99.99,,2013-03-31 23:52:00,
2013-03-31 18:02:00,45.0,25.0,30.24,West,280,0.0,10.0,44,-99.99,,,-99.99,,2013-04-01 00:02:00,
2013-03-31 18:07:00,46.0,24.0,30.24,WNW,290,8.0,8.0,43,-99.99,,,-99.99,,2013-04-01 00:07:00,
2013-03-31 18:12:00,45.0,24.0,30.24,West,270,9.0,9.0,43,-99.99,,,-99.99,,2013-04-01 00:12:00,
2013-03-31 18:22:00,45.0,24.0,30.24,WNW,300,3.0,8.0,43,-99.99,,,-99.99,,2013-04-01 00:22:00,
2013-03-31 18:27:00,45.0,23.0,30.23,West,280,5.0,7.0,43,-99.99,,,-99.99,,2013-04-01 00:27:00,
2013-03-31 18:37:00,44.0,24.0,30.23,West,270,0.0,6.0,45,-99.99,,,-99.99,,2013-04-01 00:37:00,
2013-03-31 18:42:00,44.0,24.0,30.23,West,270,0.0,0.0,47,-99.99,,,-99.99,,2013-04-01 00:42:00,
2013-03-31 18:52:00,42.0,24.0,30.23,West,270,0.0,0.0,48,-99.99,,,-99.99,,2013-04-01 00:52:00,
2013-03-31 19:02:00,41.0,24.0,30.22,West,270,0.0,0.0,50,-99.99,,,-99.99,,2013-04-01 01:02:00,
2013-03-31 19:07:00,40.0,24.0,30.22,West,270,0.0,0.0,52,-99.99,,,-99.99,,2013-04-01 01:07:00,
2013-03-31 19:17:00,39.0,24.0,30.22,West,270,0.0,0.0,55,-99.99,,,-99.99,,2013-04-01 01:17:00,
2013-03-31 19:22:00,39.0,25.0,30.22,West,270,0.0,0.0,57,-99.99,,,-99.99,,2013-04-01 01:22:00,
2013-03-31 19:32:00,38.0,25.0,30.22,West,270,0.0,0.0,60,-99.99,,,-99.99,,2013-04-01 01:32:00,
2013-03-31 19:37:00,37.0,25.0,30.22,West,270,0.0,0.0,62,-99.99,,,-99.99,,2013-04-01 01:37:00,
2013-03-31 19:47:00,36.0,25.0,30.22,North,0,0.0,2.0,62,-99.99,,,-99.99,,2013-04-01 01:47:00,
2013-03-31 19:57:00,36.0,24.0,30.22,North,0,0.0,0.0,63,-99.99,,,-99.99,,2013-04-01 01:57:00,
2013-03-31 20:07:00,35.0,25.0,30.22,West,280,0.0,0.0,65,-99.99,,,-99.99,,2013-04-01 02:07:00,
2013-03-31 20:17:00,35.0,25.0,30.22,West,280,0.0,0.0,67,-99.99,,,-99.99,,2013-04-01 02:17:00,
2013-03-31 20:27:00,34.0,24.0,30.22,North,10,4.0,5.0,68,-99.99,,,-99.99,,2013-04-01 02:27:00,
2013-03-31 20:32:00,33.0,24.0,30.22,NNE,30,4.0,5.0,70,-99.99,,,-99.99,,2013-04-01 02:32:00,
2013-03-31 20:37:00,33.0,24.0,30.22,NNE,30,4.0,6.0,70,-99.99,,,-99.99,,2013-04-01 02:37:00,
2013-03-31 20:42:00,32.0,24.0,30.23,North,0,0.0,6.0,71,-99.99,,,-99.99,,2013-04-01 02:42:00,
2013-03-31 20:47:00,32.0,24.0,30.23,North,0,0.0,5.0,72,-99.99,,,-99.99,,2013-04-01 02:47:00,
2013-03-31 20:57:00,32.0,24.0,30.23,WNW,300,5.0,6.0,73,-99.99,,,-99.99,,2013-04-01 02:57:00,
2013-03-31 21:07:00,31.0,24.0,30.23,North,0,0.0,3.0,74,-99.99,,,-99.99,,2013-04-01 03:07:00,
2013-03-31 21:17:00,31.0,24.0,30.23,North,350,0.0,3.0,74,-99.99,,,-99.99,,2013-04-01 03:17:00,
2013-03-31 21:27:00,31.0,24.0,30.24,NNW,340,0.0,3.0,73,-99.99,,,-99.99,,2013-04-01 03:27:00,
2013-03-31 21:32:00,31.0,24.0,30.23,NW,320,7.0,0.0,74,-99.99,,,-99.99,,2013-04-01 03:32:00,
2013-03-31 21:42:00,30.0,23.0,30.24,North,0,3.0,7.0,75,-99.99,,,-99.99,,2013-04-01 03:42:00,
2013-03-31 21:47:00,30.0,23.0,30.24,North,0,0.0,6.0,76,-99.99,,,-99.99,,2013-04-01 03:47:00,
2013-03-31 21:57:00,30.0,23.0,30.24,NW,320,0.0,4.0,77,-99.99,,,-99.99,,2013-04-01 03:57:00,
2013-03-31 22:02:00,30.0,23.0,30.24,NNW,340,5.0,5.0,77,-99.99,,,-99.99,,2013-04-01 04:02:00,
2013-03-31 22:07:00,30.0,23.0,30.24,North,0,0.0,7.0,77,-99.99,,,-99.99,,2013-04-01 04:07:00,
2013-03-31 22:12:00,29.0,23.0,30.24,North,350,6.0,6.0,78,-99.99,,,-99.99,,2013-04-01 04:12:00,
2013-03-31 22:17:00,29.0,23.0,30.23,NNW,330,7.0,7.0,79,-99.99,,,-99.99,,2013-04-01 04:17:00,
2013-03-31 22:27:00,28.0,23.0,30.24,NNW,330,7.0,8.0,80,-99.99,,,-99.99,,2013-04-01 04:27:00,
2013-03-31 22:32:00,28.0,23.0,30.23,North,10,6.0,9.0,80,-99.99,,,-99.99,,2013-04-01 04:32:00,
2013-03-31 22:37:00,28.0,23.0,30.23,North,10,6.0,7.0,80,-99.99,,,-99.99,,2013-04-01 04:37:00,
2013-03-31 22:42:00,28.0,23.0,30.23,NNW,330,8.0,8.0,81,-99.99,,,-99.99,,2013-04-01 04:42:00,
2013-03-31 22:47:00,28.0,23.0,30.23,NNW,330,7.0,8.0,81,-99.99,,,-99.99,,2013-04-01 04:47:00,
2013-03-31 22:57:00,28.0,22.0,30.23,NW,320,6.0,9.0,81,-99.99,,,-99.99,,2013-04-01 04:57:00,
2013-03-31 23:07:00,27.0,22.0,30.22,NNW,340,7.0,9.0,82,-99.99,,,-99.99,,2013-04-01 05:07:00,
2013-03-31 23:12:00,27.0,22.0,30.23,NNW,330,6.0,8.0,83,-99.99,,,-99.99,,2013-04-01 05:12:00,
2013-03-31 23:22:00,26.0,22.0,30.23,NNW,330,11.0,11.0,83,-99.99,,,-99.99,,2013-04-01 05:22:00,
2013-03-31 23:32:00,26.0,22.0,30.22,North,10,7.0,9.0,83,-99.99,,,-99.99,,2013-04-01 05:32:00,
2013-03-31 23:37:00,26.0,22.0,30.23,NW,320,9.0,9.0,83,-99.99,,,-99.99,,2013-04-01 05:37:00,
2013-03-31 23:42:00,26.0,22.0,30.22,NNW,340,9.0,10.0,85,-99.99,,,-99.99,,2013-04-01 05:42:00,
2013-03-31 23:47:00,26.0,22.0,30.22,NNW,340,6.0,9.0,85,-99.99,,,-99.99,,2013-04-01 05:47:00,
2013-03-31 23:57:00,25.0,21.0,30.22,North,0,9.0,9.0,85,-99.99,,,-99.99,,2013-04-01 05:57:00,